Location: Ostrava
(49.8330°N, 18.2830°E)
Time: 05:22:19
(UTC+02:00)

Explorer 7 - Visible Passes

Search period start: 25 May 2015 00:00
Search period end: 04 June 2015 00:00
Orbit: 488 x 695 km, 50.3° (Epoch: 24 May)

Date Brightness Start Highest point End Pass type
(mag) Time Alt. Az. Time Alt. Az. Time Alt. Az.
25 May 6.6 00:23:54 10° W 00:27:53 84° S 00:31:26 14° ESE visible
25 May 7.6 02:04:39 10° W 02:07:47 32° SW 02:07:47 32° SW visible
25 May 6.7 21:10:44 10° WSW 21:14:28 58° SSE 21:18:21 10° E visible
25 May 6.7 22:51:15 10° W 22:55:07 82° N 22:59:13 10° E visible
26 May 6.6 00:31:53 10° W 00:35:51 68° SSW 00:37:22 37° SE visible
26 May 8.8 02:12:53 10° W 02:13:48 15° W 02:13:48 15° W visible
26 May 6.6 21:18:37 10° WSW 21:22:25 76° SSE 21:26:22 10° E visible
26 May 6.7 22:59:15 10° W 23:03:08 84° N 23:07:15 10° E visible
27 May 6.9 00:39:54 10° W 00:43:47 51° SSW 00:44:00 50° SSW visible
27 May 6.7 21:26:35 10° W 21:30:23 90° SSW 21:34:22 10° E visible
27 May 6.6 23:07:15 10° W 23:11:08 88° SSW 23:14:25 15° ESE visible
28 May 7.6 00:47:57 10° W 00:50:53 33° SW 00:50:53 33° SW visible
28 May 6.7 21:34:34 10° W 21:38:23 83° N 21:42:22 10° E visible
28 May 6.6 23:15:13 10° W 23:19:06 73° SSW 23:21:26 24° ESE visible
29 May 8.4 00:56:08 10° W 00:57:53 20° WSW 00:57:53 20° WSW visible
29 May 6.7 21:42:33 10° W 21:46:23 83° N 21:50:22 10° E visible
29 May 6.8 23:23:12 10° W 23:27:02 56° SSW 23:28:31 34° SE visible
30 May 9.1 01:04:34 10° W 01:04:59 12° WSW 01:04:59 12° WSW visible
30 May 6.7 21:50:32 10° W 21:54:22 89° N 21:58:22 10° E visible
30 May 7.2 23:31:13 10° W 23:34:54 40° SSW 23:35:40 36° S visible
31 May 6.6 21:58:30 10° W 22:02:19 78° SSW 22:06:19 10° ESE visible
31 May 7.8 23:39:20 10° W 23:42:43 28° SSW 23:42:52 28° SSW visible
01 Jun 6.8 22:06:28 10° W 22:10:15 61° SSW 22:13:36 14° ESE visible
01 Jun 8.4 23:47:40 10° W 23:50:06 18° SW 23:50:06 18° SW visible
02 Jun 7.2 22:14:27 10° W 22:18:07 44° SSW 22:20:53 17° SE visible
02 Jun 9.0 23:56:38 10° WSW 23:57:22 11° SW 23:57:22 11° SW visible
03 Jun 7.7 22:22:31 10° W 22:25:56 31° SSW 22:28:12 17° SSE visible
